Pipestone, MN

12:03 PM CST on February 24, 2017 (GMT -0600)
Pipestone Municipal

Weather History for KPQN - September, 2013

Change the Weather History Date:

Sunday, September 22, 2013

  Actual Average Record
Temperature  
Mean Temperature 66 °F -  
Max Temperature 80 °F 66 °F 80 °F (1999)
Min Temperature 51 °F 44 °F 32 °F (2012)
Growing Degree Days 16 (Base 50)    
Moisture  
Dew Point 48 °F    
Average Humidity 57    
Maximum Humidity 88    
Minimum Humidity 28    
Precipitation  
Precipitation 0.00 in - - ()
Sea Level Pressure  
Sea Level Pressure 29.80 in    
Wind  
Wind Speed 12 mph (South)    
Max Wind Speed 25 mph    
Max Gust Speed 32 mph    
Visibility 10 miles    
Events      
Averages and records for this station are not official NWS values.
T = Trace of Precipitation, MM = Missing Value Source: NWS Daily Summary

Daily Weather History Graph

Daily Weather History Graph

Search for Another Location

Airport or City:

Trip Planner

Search our weather history database for the weather conditions in past years. The results will help you decide how hot, cold, wet, or windy it might be!

Date:

Astronomy

Sep. 22, 2013 Rise Set
Actual Time 7:12 AM CDT 7:22 PM CDT
Civil Twilight 6:43 AM CDT 7:50 PM CDT
Nautical Twilight 6:10 AM CDT 8:24 PM CDT
Astronomical Twilight 5:35 AM CDT 8:59 PM CDT
Moon 9:04 PM CDT (9/22) 10:42 AM CDT (9/22)
Length of Visible Light 13h 06m
Length of Day
12h 09m
Waning Gibbous, 88% of the Moon is Illuminated
Sep 22
Waning Gibbous
Sep 26
Last Quarter
Oct 4
New
Oct 11
First Quarter
Oct 18
Full

Hourly Weather History & Observations

Time (CDT) Temp. Dew Point Humidity Pressure Visibility Wind Dir Wind Speed Gust Speed Precip Events Conditions
12:13 AM 51.8 °F 44.6 °F 76% 29.87 in 10.0 mi SE 8.1 mph - N/A   Clear
12:33 AM 53.6 °F 44.6 °F 72% 29.87 in 10.0 mi SE 8.1 mph - N/A   Clear
12:53 AM 53.6 °F 44.6 °F 72% 29.87 in 10.0 mi SSE 8.1 mph - N/A   Clear
1:13 AM 53.6 °F 42.8 °F 67% 29.86 in 10.0 mi SSE 8.1 mph - N/A   Clear
1:33 AM 53.6 °F 42.8 °F 67% 29.86 in 10.0 mi SSE 9.2 mph - N/A   Clear
1:53 AM 53.6 °F 44.6 °F 72% 29.86 in 10.0 mi SSE 8.1 mph - N/A   Clear
2:13 AM 53.6 °F 44.6 °F 72% 29.86 in 10.0 mi SSE 9.2 mph - N/A   Clear
2:33 AM 55.4 °F 44.6 °F 67% 29.85 in 10.0 mi SSE 10.4 mph - N/A   Clear
2:53 AM 55.4 °F 44.6 °F 67% 29.85 in 10.0 mi SSE 8.1 mph - N/A   Clear
3:13 AM 55.4 °F 46.4 °F 72% 29.84 in 10.0 mi SSE 8.1 mph - N/A   Clear
3:33 AM 55.4 °F 46.4 °F 72% 29.84 in 10.0 mi South 6.9 mph - N/A   Clear
3:53 AM 55.4 °F 46.4 °F 72% 29.83 in 10.0 mi SSE 8.1 mph - N/A   Clear
4:13 AM 55.4 °F 46.4 °F 72% 29.83 in 10.0 mi SSE 9.2 mph - N/A   Clear
4:33 AM 53.6 °F 46.4 °F 77% 29.83 in 10.0 mi SSE 8.1 mph - N/A   Clear
4:53 AM 53.6 °F 46.4 °F 77% 29.82 in 10.0 mi SSE 10.4 mph - N/A   Clear
5:13 AM 53.6 °F 46.4 °F 77% 29.82 in 10.0 mi SSE 9.2 mph - N/A   Clear
5:34 AM 53.6 °F 46.4 °F 77% 29.82 in 10.0 mi SSE 10.4 mph - N/A   Clear
5:53 AM 53.6 °F 46.4 °F 77% 29.82 in 10.0 mi SSE 12.7 mph - N/A   Clear
6:13 AM 51.8 °F 46.4 °F 82% 29.82 in 10.0 mi SSE 10.4 mph - N/A   Clear
6:34 AM 51.8 °F 46.4 °F 82% 29.82 in 10.0 mi SSE 10.4 mph - N/A   Clear
6:53 AM 51.8 °F 48.2 °F 88% 29.82 in 10.0 mi SSE 11.5 mph 17.3 mph N/A   Clear
7:13 AM 51.8 °F 46.4 °F 82% 29.82 in 10.0 mi SSE 10.4 mph - N/A   Clear
7:33 AM 51.8 °F 48.2 °F 88% 29.82 in 10.0 mi SSE 11.5 mph - N/A   Clear
7:53 AM 51.8 °F 48.2 °F 88% 29.82 in 10.0 mi SSE 11.5 mph - N/A   Clear
8:13 AM 53.6 °F 48.2 °F 82% 29.82 in 10.0 mi SSE 11.5 mph 17.3 mph N/A   Clear
8:33 AM 55.4 °F 48.2 °F 77% 29.82 in 10.0 mi South 12.7 mph 16.1 mph N/A   Clear
8:53 AM 55.4 °F 50.0 °F 82% 29.82 in 10.0 mi South 13.8 mph - N/A   Clear
9:13 AM 59.0 °F 51.8 °F 77% 29.82 in 10.0 mi South 12.7 mph - N/A   Clear
9:33 AM 60.8 °F 51.8 °F 72% 29.82 in 10.0 mi South 12.7 mph - N/A   Clear
9:53 AM 64.4 °F 51.8 °F 64% 29.82 in 10.0 mi South 12.7 mph - N/A   Clear
10:13 AM 66.2 °F 51.8 °F 60% 29.82 in 10.0 mi SSW 13.8 mph 20.7 mph N/A   Clear
10:33 AM 69.8 °F 51.8 °F 53% 29.82 in 10.0 mi SSW 13.8 mph 19.6 mph N/A   Clear
10:53 AM 71.6 °F 51.8 °F 50% 29.82 in 10.0 mi SSW 11.5 mph - N/A   Clear
11:13 AM 71.6 °F 51.8 °F 50% 29.81 in 10.0 mi SSW 13.8 mph 24.2 mph N/A   Clear
11:33 AM 73.4 °F 51.8 °F 47% 29.80 in 10.0 mi SSW 15.0 mph 25.3 mph N/A   Clear
11:53 AM 75.2 °F 51.8 °F 44% 29.80 in 10.0 mi SSW 15.0 mph 26.5 mph N/A   Clear
12:13 PM 75.2 °F 51.8 °F 44% 29.80 in 10.0 mi SSW 17.3 mph 24.2 mph N/A   Clear
12:33 PM 77.0 °F 48.2 °F 36% 29.79 in 10.0 mi SSW 20.7 mph 31.1 mph N/A   Clear
12:54 PM 78.8 °F 48.2 °F 34% 29.79 in 10.0 mi SSW 25.3 mph 29.9 mph N/A   Clear
1:13 PM 78.8 °F 48.2 °F 34% 29.78 in 10.0 mi SSW 21.9 mph 26.5 mph N/A   Clear
1:33 PM 80.6 °F 48.2 °F 32% 29.78 in 10.0 mi South 23.0 mph 32.2 mph N/A   Clear
1:54 PM 80.6 °F 48.2 °F 32% 29.77 in 10.0 mi SSW 20.7 mph 31.1 mph N/A   Clear
2:13 PM 80.6 °F 48.2 °F 32% 29.76 in 10.0 mi South 23.0 mph 29.9 mph N/A   Clear
2:33 PM 80.6 °F 46.4 °F 30% 29.77 in 10.0 mi SSW 20.7 mph 27.6 mph N/A   Clear
2:53 PM 80.6 °F 44.6 °F 28% 29.76 in 10.0 mi SSW 23.0 mph 31.1 mph N/A   Clear
3:13 PM 80.6 °F 46.4 °F 30% 29.76 in 10.0 mi South 19.6 mph 27.6 mph N/A   Clear
3:33 PM 80.6 °F 46.4 °F 30% 29.76 in 10.0 mi SSW 17.3 mph 26.5 mph N/A   Clear
3:53 PM 80.6 °F 46.4 °F 30% 29.75 in 10.0 mi South 17.3 mph 28.8 mph N/A   Clear
4:13 PM 80.6 °F 48.2 °F 32% 29.75 in 10.0 mi South 15.0 mph 27.6 mph N/A   Clear
4:33 PM 80.6 °F 48.2 °F 32% 29.74 in 10.0 mi South 20.7 mph 26.5 mph N/A   Clear
4:53 PM 80.6 °F 46.4 °F 30% 29.74 in 10.0 mi South 16.1 mph 28.8 mph N/A   Clear
5:13 PM 78.8 °F 46.4 °F 32% 29.74 in 10.0 mi SSW 18.4 mph 24.2 mph N/A   Clear
5:33 PM 78.8 °F 44.6 °F 30% 29.75 in 10.0 mi South 16.1 mph 23.0 mph N/A   Clear
5:53 PM 78.8 °F 46.4 °F 32% 29.75 in 10.0 mi South 19.6 mph 25.3 mph N/A   Clear
6:13 PM 77.0 °F 48.2 °F 36% 29.75 in 10.0 mi South 17.3 mph 24.2 mph N/A   Clear
6:33 PM 75.2 °F 48.2 °F 38% 29.75 in 10.0 mi South 16.1 mph 24.2 mph N/A   Clear
6:53 PM 73.4 °F 50.0 °F 44% 29.75 in 10.0 mi South 9.2 mph - N/A   Clear
7:13 PM 73.4 °F 50.0 °F 44% 29.76 in 10.0 mi South 10.4 mph - N/A   Clear
7:33 PM 71.6 °F 50.0 °F 46% 29.76 in 10.0 mi South 11.5 mph - N/A   Clear
7:53 PM 69.8 °F 50.0 °F 49% 29.76 in 10.0 mi South 11.5 mph - N/A   Clear
8:13 PM 69.8 °F 51.8 °F 53% 29.76 in 10.0 mi SSE 11.5 mph - N/A   Clear
8:33 PM 68.0 °F 51.8 °F 56% 29.77 in 10.0 mi South 11.5 mph - N/A   Clear
8:53 PM 66.2 °F 50.0 °F 56% 29.78 in 10.0 mi South 9.2 mph 16.1 mph N/A   Clear
9:13 PM 66.2 °F 50.0 °F 56% 29.78 in 10.0 mi South 11.5 mph 17.3 mph N/A   Clear
9:34 PM 66.2 °F 50.0 °F 56% 29.78 in 10.0 mi South 10.4 mph 19.6 mph N/A   Clear
9:53 PM 66.2 °F 50.0 °F 56% 29.78 in 10.0 mi South 13.8 mph 20.7 mph N/A   Clear
10:13 PM 66.2 °F 50.0 °F 56% 29.78 in 10.0 mi South 13.8 mph - N/A   Clear
10:34 PM 66.2 °F 50.0 °F 56% 29.79 in 10.0 mi South 17.3 mph 23.0 mph N/A   Clear
10:53 PM 64.4 °F 50.0 °F 59% 29.79 in 10.0 mi South 15.0 mph 20.7 mph N/A   Clear
11:13 PM 64.4 °F 51.8 °F 64% 29.79 in 10.0 mi South 15.0 mph 21.9 mph N/A   Clear
11:33 PM 64.4 °F 51.8 °F 64% 29.80 in 10.0 mi South 15.0 mph 23.0 mph N/A   Clear
11:53 PM 64.4 °F 51.8 °F 64% 29.80 in 10.0 mi South 16.1 mph 20.7 mph N/A   Clear